"startDT [UTC]","vpos","CH4 [ppm]","stdev(CH4) [ppm]","CO2 [ppm]","stdev(CO2) [ppm]","H2O_reported [%]","stdev(H2O_reported)","CavityPressure [torr]","CavityTemp [C]","OutletValve","CH4_dry [ppm]","CO2_dry [ppm]","DasTemp [C]","EtalonTemp [C]","WarmBoxTemp [C]","MPVPosition","T_ECpre [C]","T_EC1 [C]","T_EC2 [C]","p_inlet [hPa]","p_in [hPa]","p_out [hPa]","T_inlet [C]","RH_inlet [%]","dwpt_inlet [C]","T_vent [C]","RH_vent [%]","dwpt_vent [C]","flow_vent [l min-1]","flow_inlet [l min-1]","dwpt_sample [C]","T_room [C]"
2015-10-22 00:00:00,3.0,1.88352,0.02071,398.279,0.767,0.0420,0.0569,139.983,45.000,31491.14382,1.88644,398.531,35.878,45.068,45.000,0.00,0.09,-272.74,-272.80,-6,488,-944,21.5,5.4,-18.8,21.7,5.5,-18.4,5.73,2.06,-10.3,28.2
2015-10-22 00:01:00,3.0,1.87673,0.00038,397.068,0.062,0.0109,0.0017,139.999,45.000,31474.88802,1.87692,397.122,35.876,45.068,45.000,0.00,0.09,-272.74,-272.81,-8,488,-944,21.4,5.4,-18.8,21.7,5.5,-18.5,5.73,1.71,-10.2,28.2
2015-10-22 00:02:00,3.0,1.87667,0.00052,397.274,0.118,0.0097,0.0020,139.998,45.000,31471.89943,1.87688,397.314,35.870,45.068,45.000,0.00,0.09,-272.76,-272.81,-6,488,-944,21.4,5.4,-18.8,21.7,5.5,-18.5,5.73,2.07,-10.3,28.2
2015-10-22 00:03:00,3.0,1.87637,0.00038,397.514,0.044,0.0093,0.0021,140.000,45.000,31469.23139,1.87652,397.556,35.853,45.068,45.000,0.00,0.09,-272.75,-272.80,-6,488,-944,21.5,5.4,-18.9,21.7,5.4,-18.6,5.73,1.86,-10.3,28.2
2015-10-22 00:04:00,3.0,1.87653,0.00039,397.534,0.027,0.0078,0.0023,139.997,45.000,31467.78653,1.87667,397.572,35.847,45.068,45.000,0.00,0.09,-272.75,-272.80,-8,489,-944,21.5,5.4,-18.9,21.7,5.5,-18.5,5.73,1.87,-10.3,28.2
2015-10-22 00:05:00,3.0,1.87639,0.00044,397.545,0.034,0.0060,0.0016,140.001,45.000,31467.11297,1.87648,397.573,35.844,45.068,45.000,0.00,0.09,-272.75,-272.81,-6,489,-944,21.5,5.4,-18.8,21.8,5.5,-18.5,5.73,2.06,-10.3,28.2
2015-10-22 00:06:00,3.0,1.87657,0.00051,397.560,0.029,0.0071,0.0023,139.998,45.000,31465.49032,1.87674,397.594,35.819,45.068,45.000,0.00,0.09,-272.75,-272.81,-6,489,-944,21.5,5.4,-18.8,21.8,5.5,-18.5,5.73,1.72,-10.3,28.2
2015-10-22 00:07:00,3.0,1.87657,0.00032,397.553,0.035,0.0044,0.0018,140.001,45.000,31466.13212,1.87663,397.574,35.813,45.069,45.000,0.00,0.09,-272.75,-272.80,-8,489,-944,21.5,5.4,-18.8,21.8,5.5,-18.5,5.73,2.11,-10.3,28.2
2015-10-22 00:08:00,3.0,1.87676,0.00037,397.570,0.026,0.0037,0.0022,139.999,45.000,31465.63920,1.87681,397.588,35.815,45.069,45.000,0.00,0.09,-272.74,-272.81,-6,490,-944,21.5,5.4,-18.8,21.8,5.5,-18.5,5.73,1.79,-10.3,28.2
2015-10-22 00:09:00,3.0,1.87690,0.00036,397.579,0.027,0.0029,0.0018,139.999,45.000,31467.00359,1.87697,397.593,35.841,45.069,45.000,0.00,0.09,-272.76,-272.81,-7,490,-944,21.6,5.4,-18.8,21.8,5.5,-18.4,5.73,1.95,-10.3,28.2
2015-10-22 00:10:00,3.0,1.87674,0.00035,397.589,0.029,0.0025,0.0017,140.000,45.000,31470.16918,1.87676,397.601,35.854,45.068,45.000,0.00,0.09,-272.75,-272.80,-7,490,-944,21.6,5.4,-18.7,21.8,5.5,-18.4,5.73,1.99,-10.3,28.2
2015-10-22 00:11:00,3.0,1.87675,0.00032,397.579,0.031,0.0030,0.0018,140.001,45.000,31471.64141,1.87685,397.594,35.854,45.068,45.000,0.00,0.09,-272.75,-272.80,-6,491,-944,21.6,5.4,-18.8,21.9,5.5,-18.4,5.73,1.76,-10.3,28.3
2015-10-22 00:12:00,3.0,1.87668,0.00037,397.586,0.030,0.0021,0.0016,139.998,45.000,31473.57444,1.87670,397.597,35.874,45.068,45.000,0.00,0.09,-272.76,-272.81,-7,491,-944,21.7,5.3,-18.8,21.9,5.4,-18.5,5.73,2.12,-10.3,28.3
2015-10-22 00:13:00,3.0,1.87647,0.00040,397.584,0.030,0.0021,0.0018,139.999,45.000,31475.34709,1.87653,397.593,35.867,45.068,45.000,0.00,0.09,-272.74,-272.80,-7,491,-944,21.7,5.3,-19.0,21.9,5.4,-18.5,5.73,1.73,-10.3,28.3
2015-10-22 00:14:00,3.0,1.87655,0.00042,397.579,0.043,0.0023,0.0020,139.998,45.000,31476.15273,1.87659,397.590,35.828,45.068,45.000,0.00,0.09,-272.75,-272.80,-6,492,-944,21.7,5.3,-18.9,22.0,5.4,-18.4,5.73,2.04,-10.3,28.3
2015-10-22 00:15:00,3.0,1.87670,0.00037,397.603,0.035,0.0020,0.0013,139.999,45.000,31477.38839,1.87672,397.612,35.824,45.068,45.000,0.00,0.09,-272.75,-272.81,-8,492,-944,21.8,5.4,-18.7,22.0,5.4,-18.5,5.73,1.89,-10.3,28.3
2015-10-22 00:16:00,3.0,1.87669,0.00032,397.578,0.036,0.0024,0.0019,139.997,45.000,31477.77687,1.87674,397.589,35.816,45.068,45.000,0.00,0.09,-272.76,-272.81,-7,492,-944,21.8,5.3,-18.8,22.0,5.4,-18.5,5.73,1.83,-10.3,28.3
2015-10-22 00:17:00,3.0,1.87689,0.00040,397.578,0.035,0.0016,0.0014,140.002,45.000,31480.91808,1.87691,397.585,35.812,45.069,45.000,0.00,0.09,-272.74,-272.80,-6,493,-944,21.8,5.2,-19.1,22.0,5.3,-18.6,5.73,2.08,-10.3,28.3
2015-10-22 00:18:00,3.0,1.87680,0.00043,397.607,0.039,0.0010,0.0013,140.000,45.000,31481.99309,1.87681,397.613,35.814,45.069,45.000,0.00,0.09,-272.74,-272.81,-8,493,-944,21.9,5.3,-18.8,22.1,5.3,-18.6,5.73,1.71,-10.3,28.4
2015-10-22 00:19:00,3.0,1.87668,0.00033,397.598,0.031,0.0004,0.0015,140.000,45.000,31485.08668,1.87670,397.600,35.814,45.069,45.000,0.00,0.09,-272.75,-272.81,-7,493,-944,21.9,5.3,-18.8,22.2,5.4,-18.3,5.73,2.10,-10.3,28.4
2015-10-22 00:20:00,0.0,1.93317,0.02137,398.918,0.524,0.1406,0.0636,140.015,45.000,31686.59531,1.93369,399.552,35.815,45.069,45.000,0.00,0.09,-272.75,-272.81,-8,522,-943,22.0,5.3,-18.7,22.2,5.4,-18.4,5.73,1.85,-10.3,28.4
2015-10-22 00:21:00,0.0,1.93918,0.00100,398.937,0.030,0.1784,0.0016,140.001,45.000,31710.89096,1.94271,399.797,35.823,45.069,45.000,0.00,0.09,-272.75,-272.80,-9,523,-943,22.0,5.3,-18.7,22.1,5.4,-18.3,5.73,1.81,-10.3,28.4
2015-10-22 00:22:00,0.0,1.94035,0.00122,398.924,0.046,0.1789,0.0013,140.000,45.000,31715.77585,1.94378,399.787,35.842,45.068,45.000,0.00,0.09,-272.76,-272.82,-9,524,-943,22.1,5.3,-18.7,22.2,5.4,-18.3,5.73,2.13,-10.3,28.4
2015-10-22 00:23:00,0.0,1.93852,0.00139,398.842,0.073,0.1805,0.0017,140.004,45.000,31723.31748,1.94189,399.711,35.840,45.068,45.000,0.00,0.09,-272.75,-272.82,-8,524,-943,22.1,5.3,-18.6,22.2,5.4,-18.3,5.73,1.90,-10.3,28.5
2015-10-22 00:24:00,0.0,1.94037,0.00084,398.866,0.034,0.1784,0.0017,139.999,45.000,31726.21633,1.94378,399.726,35.832,45.068,45.000,0.00,0.09,-272.74,-272.80,-8,524,-943,22.1,5.3,-18.7,22.3,5.4,-18.3,5.73,1.80,-10.3,28.5
2015-10-22 00:25:00,0.0,1.94052,0.00112,398.876,0.035,0.1806,0.0018,140.001,45.000,31729.98549,1.94392,399.744,35.840,45.068,45.000,0.00,0.09,-272.76,-272.81,-9,525,-943,22.1,5.3,-18.7,22.3,5.4,-18.4,5.73,2.12,-10.3,28.5
2015-10-22 00:26:00,0.0,1.94051,0.00149,398.860,0.060,0.1810,0.0016,140.002,45.000,31735.14168,1.94414,399.736,35.862,45.068,45.000,0.00,0.09,-272.75,-272.81,-8,525,-943,22.1,5.3,-18.7,22.3,5.4,-18.4,5.73,1.90,-10.3,28.5
2015-10-22 00:27:00,0.0,1.93788,0.00144,398.545,0.101,0.1820,0.0024,140.001,45.000,31737.35575,1.94131,399.421,35.864,45.068,45.000,0.00,0.09,-272.74,-272.80,-8,525,-943,22.1,5.3,-18.6,22.3,5.4,-18.3,5.73,1.79,-10.3,28.5
2015-10-22 00:28:00,0.0,1.93893,0.00149,398.672,0.059,0.1825,0.0021,140.001,45.000,31739.41000,1.94244,399.548,35.870,45.068,45.000,0.00,0.09,-272.75,-272.80,-9,525,-943,22.1,5.3,-18.6,22.3,5.4,-18.2,5.73,2.12,-10.3,28.5
2015-10-22 00:29:00,0.0,1.93864,0.00082,398.821,0.029,0.1812,0.0019,140.000,45.000,31741.42280,1.94215,399.692,35.857,45.068,45.000,0.00,0.09,-272.75,-272.81,-9,526,-943,22.1,5.3,-18.6,22.3,5.4,-18.2,5.73,1.89,-10.3,28.5
2015-10-22 00:30:00,0.0,1.93759,0.00054,398.802,0.037,0.1817,0.0014,140.002,45.000,31742.58633,1.94112,399.679,35.835,45.068,45.000,0.00,0.09,-272.75,-272.81,-8,526,-943,22.1,5.2,-18.8,22.3,5.4,-18.3,5.73,1.80,-10.3,28.5
2015-10-22 00:31:00,0.0,1.93843,0.00093,398.690,0.073,0.1815,0.0021,140.000,45.000,31743.55757,1.94188,399.565,35.820,45.068,45.000,0.00,0.09,-272.74,-272.80,-8,525,-944,22.1,5.3,-18.7,22.3,5.4,-18.3,5.73,2.12,-10.3,28.5
2015-10-22 00:32:00,0.0,1.93808,0.00076,398.662,0.035,0.1814,0.0022,139.998,45.000,31743.77099,1.94156,399.535,35.819,45.069,45.000,0.00,0.09,-272.74,-272.81,-9,526,-943,22.1,5.3,-18.7,22.3,5.4,-18.3,5.73,1.89,-10.3,28.5
2015-10-22 00:33:00,0.0,1.93877,0.00127,398.749,0.033,0.1803,0.0019,140.002,45.000,31745.96453,1.94221,399.616,35.813,45.069,45.000,0.00,0.09,-272.74,-272.81,-9,526,-943,22.1,5.2,-18.8,22.3,5.3,-18.4,5.73,1.80,-10.3,28.5
2015-10-22 00:34:00,0.0,1.93921,0.00299,398.700,0.072,0.1806,0.0018,140.000,45.000,31749.16984,1.94256,399.569,35.813,45.069,45.000,0.00,0.09,-272.75,-272.80,-8,526,-943,22.1,5.2,-18.8,22.3,5.4,-18.3,5.73,2.13,-10.3,28.5
2015-10-22 00:35:00,0.0,1.93969,0.00155,398.755,0.029,0.1805,0.0011,140.000,45.000,31749.92697,1.94329,399.624,35.791,45.069,45.000,0.00,0.09,-272.74,-272.81,-9,525,-943,22.1,5.2,-18.8,22.3,5.3,-18.4,5.73,1.87,-10.3,28.5
2015-10-22 00:36:00,0.0,1.93681,0.00094,398.606,0.088,0.1822,0.0014,140.000,45.000,31749.57296,1.94034,399.488,35.787,45.069,45.000,0.00,0.09,-272.75,-272.81,-9,526,-943,22.1,5.3,-18.7,22.3,5.4,-18.3,5.73,1.82,-10.3,28.5
2015-10-22 00:37:00,0.0,1.93878,0.00201,398.614,0.092,0.1813,0.0018,140.000,45.000,31748.82219,1.94224,399.486,35.806,45.069,45.000,0.00,0.09,-272.75,-272.80,-8,526,-943,22.0,5.2,-18.8,22.3,5.4,-18.4,5.73,2.13,-10.3,28.5
2015-10-22 00:38:00,0.0,1.93696,0.00070,398.504,0.039,0.1823,0.0017,140.002,45.000,31748.72421,1.94038,399.382,35.809,45.069,45.000,0.00,0.09,-272.74,-272.81,-8,526,-943,22.1,5.3,-18.7,22.3,5.4,-18.3,5.73,1.88,-10.3,28.5
2015-10-22 00:39:00,0.0,1.93593,0.00096,398.465,0.038,0.1830,0.0016,140.000,45.000,31750.06063,1.93950,399.345,35.803,45.068,45.000,0.00,0.09,-272.75,-272.81,-9,526,-943,22.0,5.3,-18.6,22.3,5.4,-18.3,5.73,1.82,-10.3,28.5
2015-10-22 00:40:00,0.0,1.93622,0.00070,398.478,0.044,0.1833,0.0020,139.998,45.000,31749.62842,1.93968,399.358,35.806,45.068,45.000,0.00,0.09,-272.75,-272.80,-9,526,-943,22.0,5.3,-18.6,22.2,5.4,-18.3,5.73,2.13,-10.4,28.5
2015-10-22 00:41:00,0.0,1.93661,0.00070,398.462,0.064,0.1822,0.0009,139.999,45.000,31750.79894,1.94016,399.343,35.803,45.068,45.000,0.00,0.09,-272.74,-272.80,-8,526,-944,22.0,5.3,-18.6,22.2,5.4,-18.3,5.73,1.87,-10.4,28.5
2015-10-22 00:42:00,0.0,1.93705,0.00089,398.345,0.068,0.1827,0.0018,140.000,45.000,31751.09584,1.94050,399.224,35.802,45.068,45.000,0.00,0.09,-272.75,-272.80,-8,526,-944,22.0,5.3,-18.6,22.3,5.4,-18.2,5.73,1.82,-10.3,28.5
2015-10-22 00:43:00,0.0,1.93660,0.00136,398.344,0.033,0.1846,0.0019,139.999,45.000,31752.05343,1.94017,399.231,35.797,45.068,45.000,0.00,0.09,-272.75,-272.81,-9,526,-944,22.0,5.4,-18.6,22.3,5.4,-18.3,5.73,2.13,-10.4,28.5
2015-10-22 00:44:00,0.0,1.93499,0.00072,398.327,0.036,0.1834,0.0016,140.002,45.000,31752.05494,1.93854,399.210,35.787,45.068,45.000,0.00,0.09,-272.74,-272.80,-9,526,-944,22.0,5.4,-18.6,22.2,5.4,-18.3,5.73,1.88,-10.4,28.5
2015-10-22 00:45:00,0.0,1.93486,0.00041,398.343,0.034,0.1839,0.0020,139.999,45.000,31752.32614,1.93837,399.228,35.760,45.069,45.000,0.00,0.09,-272.74,-272.81,-8,526,-944,22.0,5.3,-18.6,22.3,5.4,-18.2,5.73,1.81,-10.4,28.5
2015-10-22 00:46:00,0.0,1.93574,0.00060,398.337,0.032,0.1826,0.0020,139.998,45.000,31752.51543,1.93921,399.215,35.754,45.069,45.000,0.00,0.09,-272.75,-272.81,-9,526,-944,22.0,5.3,-18.6,22.2,5.4,-18.2,5.73,2.13,-10.4,28.5
2015-10-22 00:47:00,0.0,1.93690,0.00080,398.342,0.026,0.1833,0.0017,140.001,45.000,31755.65831,1.94034,399.224,35.750,45.069,45.000,0.00,0.09,-272.74,-272.81,-9,526,-944,22.0,5.3,-18.7,22.2,5.4,-18.3,5.73,1.87,-10.4,28.5
2015-10-22 00:48:00,0.0,1.93574,0.00081,398.325,0.041,0.1832,0.0014,140.000,45.000,31756.49506,1.93932,399.209,35.751,45.069,45.000,0.00,0.09,-272.74,-272.80,-8,526,-944,21.9,5.3,-18.7,22.3,5.4,-18.2,5.73,1.82,-10.4,28.5
2015-10-22 00:49:00,0.0,1.93786,0.00133,398.218,0.045,0.1838,0.0017,140.000,45.000,31756.47987,1.94125,399.100,35.754,45.069,45.000,0.00,0.09,-272.76,-272.81,-8,526,-944,21.9,5.4,-18.6,22.3,5.4,-18.2,5.73,2.13,-10.4,28.5
2015-10-22 00:50:00,0.0,1.93675,0.00110,398.247,0.044,0.1844,0.0021,139.999,45.000,31756.58046,1.94030,399.134,35.757,45.069,45.000,0.00,0.09,-272.75,-272.81,-9,526,-944,21.9,5.3,-18.7,22.3,5.4,-18.2,5.73,1.87,-10.4,28.5
2015-10-22 00:51:00,0.0,1.93548,0.00093,398.247,0.054,0.1841,0.0015,140.001,45.000,31756.26190,1.93909,399.134,35.766,45.069,45.000,0.00,0.09,-272.75,-272.80,-9,526,-944,21.9,5.4,-18.6,22.2,5.4,-18.2,5.73,1.82,-10.4,28.5
2015-10-22 00:52:00,0.0,1.93637,0.00097,398.354,0.057,0.1838,0.0015,139.997,45.000,31756.75775,1.93987,399.237,35.793,45.069,45.000,0.00,0.09,-272.75,-272.81,-8,526,-944,21.9,5.4,-18.6,22.2,5.4,-18.2,5.73,2.13,-10.4,28.6
2015-10-22 00:53:00,0.0,1.93727,0.00091,398.348,0.025,0.1827,0.0020,139.999,45.000,31756.46307,1.94074,399.226,35.794,45.069,45.000,0.00,0.09,-272.75,-272.81,-8,526,-944,21.9,5.3,-18.7,22.2,5.4,-18.2,5.73,1.86,-10.4,28.6
2015-10-22 00:54:00,0.0,1.93460,0.00054,398.339,0.048,0.1847,0.0021,140.000,45.000,31759.30189,1.93822,399.228,35.801,45.068,45.000,0.00,0.09,-272.74,-272.80,-9,526,-944,21.9,5.4,-18.6,22.2,5.4,-18.3,5.73,1.83,-10.4,28.6
2015-10-22 00:55:00,0.0,1.93438,0.00055,398.314,0.037,0.1845,0.0019,139.999,45.000,31759.25701,1.93786,399.201,35.813,45.068,45.000,0.00,0.09,-272.75,-272.80,-9,526,-944,21.9,5.4,-18.6,22.3,5.4,-18.2,5.73,2.13,-10.4,28.5
2015-10-22 00:56:00,0.0,1.93542,0.00073,398.391,0.043,0.1832,0.0022,139.997,45.000,31757.96322,1.93900,399.273,35.814,45.068,45.000,0.00,0.09,-272.75,-272.81,-8,526,-944,21.9,5.4,-18.6,22.3,5.4,-18.2,5.73,1.85,-10.4,28.6
2015-10-22 00:57:00,0.0,1.93512,0.00054,398.390,0.035,0.1834,0.0017,139.997,45.000,31759.50546,1.93858,399.272,35.819,45.068,45.000,0.00,0.09,-272.75,-272.80,-9,526,-944,22.0,5.4,-18.5,22.2,5.4,-18.3,5.73,1.84,-10.4,28.6
2015-10-22 00:58:00,0.0,1.93619,0.00130,398.388,0.031,0.1839,0.0013,139.999,45.000,31759.91982,1.93958,399.272,35.834,45.068,45.000,0.00,0.09,-272.74,-272.80,-9,526,-944,22.0,5.3,-18.6,22.3,5.4,-18.1,5.73,2.13,-10.4,28.7
2015-10-22 00:59:00,0.0,1.93953,0.00119,398.406,0.048,0.1828,0.0016,139.999,45.000,31760.14867,1.94316,399.288,35.861,45.068,45.000,0.00,0.09,-272.74,-272.81,-8,526,-944,22.0,5.3,-18.7,22.3,5.4,-18.3,5.73,1.84,-10.4,28.6
2015-10-22 01:00:00,0.0,1.93529,0.00129,398.209,0.049,0.1847,0.0028,140.001,45.000,31760.43408,1.93878,399.096,35.860,45.068,45.000,0.00,0.09,-272.75,-272.81,-8,526,-944,22.0,5.4,-18.6,22.3,5.4,-18.2,5.73,1.86,-10.4,28.7
2015-10-22 01:01:00,0.0,1.93562,0.00049,398.386,0.041,0.1841,0.0016,139.998,45.000,31759.62843,1.93919,399.269,35.875,45.068,45.000,0.00,0.09,-272.74,-272.80,-10,526,-944,22.0,5.4,-18.6,22.3,5.4,-18.2,5.73,2.13,-10.4,28.7
2015-10-22 01:02:00,0.0,1.93543,0.00059,398.436,0.026,0.1837,0.0016,140.001,45.000,31760.28277,1.93893,399.320,35.874,45.068,45.000,0.00,0.09,-272.74,-272.81,-9,526,-944,22.0,5.4,-18.5,22.3,5.4,-18.2,5.73,1.82,-10.4,28.7
2015-10-22 01:03:00,0.0,1.93749,0.00113,398.491,0.036,0.1830,0.0015,140.000,45.000,31762.00860,1.94091,399.369,35.873,45.068,45.000,0.00,0.09,-272.75,-272.81,-8,526,-944,22.0,5.3,-18.6,22.3,5.4,-18.2,5.73,1.89,-10.4,28.7
2015-10-22 01:04:00,0.0,1.94012,0.00150,398.566,0.042,0.1822,0.0017,140.001,45.000,31762.51868,1.94367,399.444,35.875,45.068,45.000,0.00,0.09,-272.75,-272.80,-9,526,-944,22.0,5.3,-18.7,22.3,5.4,-18.3,5.73,2.12,-10.4,28.7
2015-10-22 01:05:00,0.0,1.93620,0.00069,398.481,0.049,0.1836,0.0017,139.998,45.000,31761.77873,1.93975,399.365,35.871,45.068,45.000,0.00,0.09,-272.74,-272.81,-10,526,-944,22.0,5.4,-18.6,22.3,5.4,-18.3,5.73,1.79,-10.4,28.7
2015-10-22 01:06:00,0.0,1.93550,0.00051,398.417,0.047,0.1839,0.0019,139.998,45.000,31760.31780,1.93905,399.304,35.852,45.069,45.000,0.00,0.09,-272.75,-272.81,-8,526,-944,22.0,5.4,-18.6,22.3,5.4,-18.2,5.73,1.92,-10.4,28.7
2015-10-22 01:07:00,0.0,1.93610,0.00103,398.392,0.058,0.1841,0.0019,139.999,45.000,31762.49665,1.93964,399.278,35.816,45.069,45.000,0.00,0.09,-272.75,-272.81,-8,526,-944,21.9,5.4,-18.5,22.3,5.4,-18.2,5.73,2.11,-10.4,28.7
2015-10-22 01:08:00,0.0,1.93798,0.00144,398.371,0.054,0.1849,0.0017,140.000,45.000,31763.97111,1.94136,399.258,35.821,45.069,45.001,0.00,0.09,-272.74,-272.80,-10,526,-944,21.9,5.4,-18.6,22.3,5.4,-18.2,5.73,1.77,-10.4,28.7
2015-10-22 01:09:00,0.0,1.93641,0.00161,398.259,0.082,0.1852,0.0013,140.002,45.000,31762.18149,1.94006,399.150,35.833,45.069,45.001,0.00,0.09,-272.75,-272.80,-9,526,-944,21.9,5.4,-18.5,22.3,5.5,-18.2,5.73,1.94,-10.4,28.7
2015-10-22 01:10:00,0.0,1.93578,0.00120,398.353,0.051,0.1848,0.0018,140.001,45.000,31761.46388,1.93923,399.243,35.862,45.069,45.000,0.00,0.09,-272.75,-272.81,-8,526,-944,21.9,5.4,-18.5,22.2,5.5,-18.2,5.73,2.09,-10.4,28.7
2015-10-22 01:11:00,0.0,1.93525,0.00075,398.376,0.086,0.1843,0.0012,139.999,45.000,31761.32333,1.93888,399.262,35.875,45.069,45.000,0.00,0.09,-272.74,-272.81,-9,526,-944,21.9,5.4,-18.5,22.2,5.5,-18.2,5.73,1.76,-10.4,28.7
2015-10-22 01:12:00,0.0,1.93506,0.00081,398.303,0.034,0.1849,0.0017,140.001,45.000,31765.21995,1.93858,399.193,35.876,45.069,45.000,0.00,0.09,-272.75,-272.81,-9,526,-944,21.9,5.4,-18.5,22.2,5.5,-18.2,5.73,1.97,-10.4,28.7
2015-10-22 01:13:00,0.0,1.93588,0.00069,398.356,0.032,0.1849,0.0018,140.002,45.000,31764.30768,1.93939,399.245,35.883,45.069,45.000,0.00,0.09,-272.75,-272.81,-8,526,-944,21.9,5.4,-18.5,22.2,5.5,-18.2,5.73,2.08,-10.4,28.7
2015-10-22 01:14:00,0.0,1.93629,0.00089,398.449,0.056,0.1842,0.0013,140.000,45.000,31763.54662,1.93983,399.333,35.893,45.069,45.000,0.00,0.09,-272.74,-272.81,-8,526,-944,21.9,5.4,-18.5,22.2,5.5,-18.2,5.73,1.75,-10.4,28.7
2015-10-22 01:15:00,0.0,1.93579,0.00067,398.411,0.046,0.1847,0.0019,139.998,45.000,31764.81649,1.93934,399.300,35.909,45.069,45.000,0.00,0.09,-272.75,-272.80,-9,526,-944,21.9,5.4,-18.5,22.2,5.5,-18.2,5.73,2.00,-10.4,28.6
2015-10-22 01:16:00,0.0,1.93766,0.00155,398.349,0.049,0.1856,0.0018,139.999,45.000,31763.89134,1.94109,399.243,35.922,45.069,45.000,0.00,0.09,-272.75,-272.81,-9,526,-944,21.8,5.4,-18.5,22.2,5.5,-18.2,5.73,2.06,-10.4,28.7
2015-10-22 01:17:00,0.0,1.93685,0.00213,398.211,0.157,0.1861,0.0016,140.000,45.000,31764.75556,1.94059,399.113,35.938,45.069,45.000,0.00,0.09,-272.74,-272.81,-8,526,-944,21.8,5.5,-18.5,22.1,5.5,-18.1,5.73,1.75,-10.4,28.6
2015-10-22 01:18:00,0.0,1.93803,0.00137,398.300,0.099,0.1858,0.0025,140.000,45.000,31764.50273,1.94142,399.189,35.939,45.068,45.000,0.00,0.09,-272.75,-272.80,-8,526,-944,21.9,5.4,-18.5,22.1,5.5,-18.2,5.73,2.02,-10.4,28.7
2015-10-22 01:19:00,0.0,1.93798,0.00125,398.362,0.077,0.1853,0.0016,140.001,45.000,31764.95018,1.94152,399.251,35.959,45.068,45.000,0.00,0.09,-272.75,-272.81,-9,526,-944,21.8,5.4,-18.5,22.1,5.5,-18.2,5.73,2.04,-10.4,28.6
2015-10-22 01:20:00,0.0,1.93786,0.00100,398.528,0.031,0.1855,0.0023,139.997,45.000,31763.12417,1.94151,399.420,35.971,45.068,45.000,0.00,0.09,-272.75,-272.81,-8,526,-944,21.9,5.4,-18.5,22.2,5.5,-18.1,5.73,1.75,-10.4,28.6
2015-10-22 01:21:00,0.0,1.93599,0.00058,398.489,0.028,0.1857,0.0022,139.999,45.000,31764.09598,1.93957,399.383,35.993,45.068,45.000,0.00,0.09,-272.75,-272.80,-8,526,-944,21.8,5.5,-18.5,22.1,5.5,-18.2,5.73,2.06,-10.4,28.7
2015-10-22 01:22:00,0.0,1.93849,0.00178,398.494,0.054,0.1864,0.0015,139.999,45.000,31761.34320,1.94189,399.389,35.985,45.068,45.000,0.00,0.09,-272.75,-272.81,-9,526,-944,21.9,5.5,-18.5,22.1,5.5,-18.2,5.73,1.99,-10.4,28.6
2015-10-22 01:23:00,0.0,1.93889,0.00142,398.661,0.058,0.1861,0.0013,139.999,45.000,31761.11355,1.94256,399.556,35.985,45.068,45.000,0.00,0.09,-272.74,-272.80,-9,526,-944,21.9,5.5,-18.5,22.1,5.5,-18.1,5.73,1.76,-10.4,28.6
2015-10-22 01:24:00,0.0,1.93859,0.00069,398.651,0.032,0.1862,0.0014,140.000,45.000,31761.58786,1.94212,399.548,35.961,45.068,45.000,0.00,0.09,-272.75,-272.79,-8,526,-944,21.8,5.5,-18.5,22.1,5.5,-18.1,5.73,2.11,-10.4,28.7
2015-10-22 01:25:00,0.0,1.93783,0.00151,398.680,0.113,0.1849,0.0022,140.000,45.000,31761.46179,1.94146,399.571,35.969,45.068,45.000,0.00,0.09,-272.75,-272.80,-9,526,-944,21.8,5.5,-18.5,22.1,5.5,-18.1,5.73,1.92,-10.4,28.6
2015-10-22 01:26:00,0.0,1.93791,0.00132,398.661,0.072,0.1847,0.0017,139.998,45.000,31760.46461,1.94132,399.549,35.982,45.068,45.000,0.00,0.09,-272.75,-272.81,-9,526,-943,21.8,5.4,-18.5,22.1,5.5,-18.2,5.73,1.80,-10.4,28.6
2015-10-22 01:27:00,0.0,1.93639,0.00161,398.457,0.167,0.1861,0.0018,140.000,45.000,31759.24517,1.94004,399.355,35.947,45.068,45.000,0.00,0.09,-272.75,-272.81,-8,526,-943,21.8,5.4,-18.6,22.1,5.5,-18.2,5.73,2.13,-10.4,28.6
2015-10-22 01:28:00,0.0,1.93601,0.00125,398.478,0.162,0.1852,0.0017,139.999,45.000,31757.60176,1.93961,399.372,35.939,45.068,45.000,0.00,0.09,-272.74,-272.81,-8,526,-943,21.8,5.4,-18.5,22.1,5.5,-18.2,5.73,1.85,-10.4,28.6
2015-10-22 01:29:00,0.0,1.93499,0.00102,398.307,0.205,0.1849,0.0013,140.001,45.000,31758.25366,1.93858,399.200,35.937,45.068,45.000,0.00,0.09,-272.75,-272.81,-10,526,-943,21.8,5.4,-18.5,22.1,5.5,-18.2,5.73,1.86,-10.4,28.6
2015-10-22 01:30:00,0.0,1.93387,0.00124,398.155,0.169,0.1865,0.0016,140.002,45.000,31758.01014,1.93749,399.052,35.938,45.069,45.000,0.00,0.09,-272.75,-272.81,-9,526,-943,21.8,5.4,-18.5,22.1,5.5,-18.2,5.73,2.13,-10.4,28.6
2015-10-22 01:31:00,0.0,1.93396,0.00198,398.156,0.315,0.1863,0.0017,140.000,45.000,31757.97327,1.93736,399.048,35.938,45.068,45.000,0.00,0.09,-272.74,-272.80,-8,526,-943,21.8,5.5,-18.5,22.1,5.5,-18.2,5.73,1.80,-10.4,28.6
2015-10-22 01:32:00,0.0,1.93329,0.00420,397.973,0.616,0.1851,0.0019,139.999,45.000,31757.46342,1.93711,398.878,35.940,45.068,45.000,0.00,0.09,-272.76,-272.80,-9,526,-943,21.8,5.4,-18.5,22.1,5.5,-18.2,5.73,1.92,-10.4,28.6
2015-10-22 01:33:00,0.0,1.92984,0.00094,397.473,0.112,0.1877,0.0016,140.000,45.000,31758.46234,1.93332,398.366,35.939,45.068,45.000,0.00,0.09,-272.75,-272.81,-9,526,-943,21.7,5.5,-18.4,22.1,5.6,-18.1,5.73,2.11,-10.4,28.6
2015-10-22 01:34:00,0.0,1.93625,0.00179,398.472,0.240,0.1855,0.0020,139.999,45.000,31755.68991,1.93969,399.355,35.938,45.068,45.000,0.00,0.09,-272.74,-272.80,-8,526,-943,21.7,5.5,-18.6,22.1,5.6,-18.1,5.73,1.77,-10.4,28.5
2015-10-22 01:35:00,0.0,1.93522,0.00134,398.286,0.135,0.1864,0.0018,140.000,45.000,31756.92908,1.93870,399.180,35.938,45.068,45.000,0.00,0.09,-272.75,-272.80,-8,526,-943,21.7,5.5,-18.5,22.1,5.5,-18.2,5.73,1.96,-10.4,28.5
2015-10-22 01:36:00,0.0,1.93666,0.00097,398.667,0.103,0.1853,0.0016,140.000,45.000,31758.69243,1.94025,399.555,35.934,45.068,45.000,0.00,0.09,-272.75,-272.81,-9,526,-944,21.7,5.4,-18.6,22.1,5.5,-18.2,5.73,2.09,-10.4,28.6
2015-10-22 01:37:00,0.0,1.93789,0.00137,398.667,0.071,0.1849,0.0011,140.001,45.000,31758.00514,1.94135,399.558,35.897,45.068,45.000,0.00,0.09,-272.74,-272.81,-9,526,-944,21.7,5.4,-18.6,22.1,5.5,-18.2,5.73,1.76,-10.4,28.6
2015-10-22 01:38:00,0.0,1.93654,0.00170,398.412,0.169,0.1846,0.0019,139.999,45.000,31757.00488,1.94016,399.307,35.890,45.068,45.000,0.00,0.09,-272.75,-272.80,-8,526,-944,21.7,5.4,-18.6,22.1,5.5,-18.2,5.73,2.00,-10.4,28.5
2015-10-22 01:39:00,0.0,1.93558,0.00091,398.232,0.045,0.1863,0.0018,140.000,45.000,31758.05804,1.93917,399.130,35.882,45.068,45.000,0.00,0.09,-272.74,-272.81,-9,526,-944,21.7,5.5,-18.4,22.1,5.5,-18.1,5.73,2.07,-10.4,28.5
2015-10-22 01:40:00,0.0,1.93475,0.00150,398.172,0.145,0.1878,0.0016,140.001,45.000,31756.30759,1.93844,399.078,35.876,45.069,45.000,0.00,0.09,-272.75,-272.81,-9,526,-944,21.7,5.5,-18.4,22.0,5.6,-18.0,5.73,1.75,-10.4,28.5
2015-10-22 01:41:00,0.0,1.93297,0.00084,397.986,0.090,0.1876,0.0013,140.000,45.000,31755.50162,1.93649,398.886,35.876,45.069,45.000,0.00,0.09,-272.75,-272.81,-8,526,-944,21.7,5.5,-18.4,22.0,5.6,-18.1,5.73,2.01,-10.4,28.5
2015-10-22 01:42:00,0.0,1.93409,0.00106,398.094,0.083,0.1875,0.0013,140.000,45.000,31755.60103,1.93769,398.996,35.875,45.069,45.000,0.00,0.09,-272.74,-272.81,-8,525,-944,21.7,5.5,-18.4,22.1,5.6,-18.1,5.73,2.06,-10.4,28.5
2015-10-22 01:43:00,0.0,1.93419,0.00077,398.049,0.041,0.1887,0.0016,139.998,45.000,31755.51013,1.93778,398.956,35.875,45.069,45.000,0.00,0.09,-272.74,-272.81,-9,525,-944,21.7,5.5,-18.4,22.0,5.6,-18.0,5.73,1.75,-10.4,28.4
2015-10-22 01:44:00,0.0,1.93418,0.00070,398.114,0.044,0.1881,0.0021,140.000,45.000,31753.97486,1.93780,399.017,35.876,45.068,45.000,0.00,0.09,-272.75,-272.81,-9,526,-943,21.7,5.5,-18.4,22.0,5.6,-18.0,5.73,2.04,-10.4,28.5
2015-10-22 01:45:00,0.0,1.93254,0.00050,397.974,0.047,0.1875,0.0015,139.996,45.000,31751.59629,1.93617,398.878,35.873,45.068,45.000,0.00,0.09,-272.74,-272.81,-8,525,-944,21.6,5.6,-18.3,22.0,5.6,-18.0,5.73,2.04,-10.4,28.4